Location: Ch�teau-Arnoux
(44.0814°N, 6.0027°E)
Time: 06:39:11
(UTC+00:00)

Cosmos 1898 Rocket - Pass Details

Date: 15 November 2019
Orbit: 753 x 785 km, 74.0° (Epoch: 10 December)

Event Time Altitude Azimuth Distance (km) Brightness Sun altitude
Rises 04:48:26 0° 209° (SSW) 3,207 6.5 -18.3°
Reaches altitude 10° 04:50:49 10° 213° (SSW) 2,291 5.7 -17.9°
Maximum altitude 04:55:57 61° 293° (WNW) 868 3.5 -17.0°
Drops below altitude 10° 05:01:11 10° 15° (NNE) 2,328 6.0 -16.1°
Sets 05:03:38 0° 18° (NNE) 3,264 6.9 -15.7°
